[[{"header":{"parameterUnit":"m.s-1","parameterCategory":1,"la1":30.2991,"la2":30.254,"lo1":-89.0895,"lo2":-89.0444,"dy":0.0017,"dx":0.0017,"nx":28,"ny":28,"refTime":"2024-10-03T03:00:00:Z","depth":0,"parameterNumber":2,"parameterNumberName":"U-component_of_WINDS"},"data":[0,0,0,0,0,0,0,0,0,0,0,0,0,0,0,0,0,0,0,0,0,0,0,0,0,0,0,0,0,0,0,0,0,0,0,0,0,0,0,0,0,0,0,0,0,0,0,0,0,0,0,0,0,0,0,0,0,0,-4.6608,-4.6609,0,-4.6645,-4.6645,-4.6645,-4.6478,-4.6473,-4.6468,-4.6464,-4.6508,-4.6514,-4.6519,0,0,0,0,0,0,0,0,0,0,0,0,0,-4.6403,-4.6407,-4.6608,-4.6609,-4.6609,-4.6644,-4.6645,-4.6645,-4.6479,-4.6473,-4.6467,-4.6461,-4.6506,-4.6513,-4.652,0,0,0,0,0,0,0,0,0,0,0,0,0,-4.6471,-4.6409,-4.6608,-4.653,-4.6524,-4.6644,-4.6645,-4.6646,-4.648,-4.6473,-4.6465,-4.6459,-4.6504,-4.6512,-4.6521,-4.672,0,0,-4.6547,-4.6551,0,0,0,0,0,0,0,0,-4.6467,-4.6479,-4.6541,-4.6536,-4.6529,-4.6549,-4.6588,-4.6671,-4.6482,-4.6497,-4.6464,-4.6455,-4.6528,-4.6534,-4.6557,-4.6723,-4.6724,-4.6548,-4.6553,-4.6557,-4.6559,0,0,0,0,0,0,0,-4.6463,-4.6476,-4.6623,-4.6542,-4.6535,-4.6496,-4.6498,-4.6603,-4.6554,-4.6495,-4.6483,-4.6489,-4.6523,-4.6549,-4.6557,-4.6725,-4.6547,-4.6555,-4.656,-4.6564,-4.7058,-4.7066,0,0,0,0,0,0,-4.6467,-4.6473,-4.6622,-4.6624,-4.6479,-4.6506,-4.6507,-4.655,-4.6552,-4.6545,-4.6495,-4.6481,-4.6538,-4.6547,-4.6558,-4.6793,-4.6557,-4.6565,-4.657,-4.705,-4.706,-4.7068,0,0,0,0,0,0,-4.6464,-4.6482,-4.662,-4.6545,-4.656,-4.6517,-4.6566,-4.6555,-4.658,-4.6552,-4.6543,-4.6531,-4.6533,-4.6546,-4.6681,-4.6792,-4.6568,-4.6576,-4.7041,-4.7053,-4.7064,-4.7264,0,0,0,0,0,0,-4.6458,-4.6482,-4.6555,-4.6548,-4.6565,-4.6741,-4.6573,-4.6561,-4.6595,-4.6577,-4.6583,-4.6577,-4.6528,-4.6669,-4.669,-4.68,-4.6583,-4.7031,-4.7046,-4.706,-4.7247,-4.7281,-4.731,0,0,0,0,0,-4.6452,-4.6611,-4.656,-4.6579,-4.6655,-4.6747,-4.6757,-4.6696,-4.6604,-4.6679,-4.6661,-4.6577,-4.6777,-4.6685,-4.6706,-4.6821,-4.7023,-4.7042,-4.7059,-4.7233,-4.7274,-4.7309,0,0,0,0,0,0,-4.6635,-4.6609,-4.6552,-4.6713,-4.6734,-4.6719,-4.6811,-4.6742,-4.679,-4.6771,-4.6696,-4.6699,-4.6848,-4.6847,-4.6745,-4.7015,-4.6885,-4.6908,-4.7009,-4.7048,-4.7079,-4.7076,-4.659,0,0,0,0,0,-4.6693,-4.6768,-4.6742,-4.6888,-4.6901,-4.6855,-4.6893,-4.6844,-4.6863,-4.6871,-4.6863,-4.6887,-4.6955,-4.7002,-4.7063,-4.7247,-4.7247,-4.7336,-4.7368,-4.7394,-4.7415,-4.7514,-4.7554,-4.7127,-4.7127,-4.7127,0,0,-4.6816,-4.6811,-4.6864,-4.6924,-4.6934,-4.7016,-4.6863,-4.6956,-4.7016,-4.6886,-4.7012,-4.7008,-4.703,-4.7191,-4.7261,-4.7195,-4.7533,-4.7417,-4.7438,-4.7444,-4.7536,-4.7577,-4.7613,-4.714,-4.7137,-4.7135,0,0,-4.7081,-4.7085,-4.7206,-4.722,-4.7236,-4.7205,-4.7235,-4.7231,-4.7222,-4.7348,-4.7252,-4.7325,-4.7443,-4.7463,-4.7489,-4.7765,-4.7689,-4.7787,-4.7952,-4.8049,-4.8083,-4.8112,-4.8211,-4.8248,-4.7808,-4.7809,-4.7809,0,-4.7233,-4.7349,-4.7278,-4.7377,-4.7408,-4.7292,-4.7417,-4.7434,-4.7471,-4.7496,-4.7421,-4.7568,-4.7575,-4.774,-4.7807,-4.7831,-4.7865,-4.7785,-4.8083,-4.8112,-4.8138,-4.8232,-4.827,-4.782,-4.7819,-4.7818,-4.7817,0,-4.7535,-4.7618,-4.7714,-4.7751,-4.7792,-4.7904,-4.7853,-4.7904,-4.7853,-4.783,-4.7961,-4.7965,-4.8026,-4.8061,-4.8012,-4.822,-4.8179,-4.8095,-4.7962,-4.8192,-4.8279,-4.8314,-4.7837,-4.7833,-4.7829,-4.7826,0,0,-4.7915,-4.7911,-4.7948,-4.7964,-4.7975,-4.8039,-4.8147,-4.8203,-4.825,-4.828,-4.837,-4.8474,-4.8397,-4.8426,-4.8379,-4.8465,-4.8684,-4.837,-4.8369,-4.8429,-4.8915,-4.8978,-4.9021,-4.8634,-4.8641,-4.8646,-4.8913,0,-4.8175,-4.8355,-4.8296,-4.8481,-4.8557,-4.845,-4.8544,-4.8563,-4.8545,-4.861,-4.8592,-4.8667,-4.8559,-4.8576,-4.8656,-4.8641,-4.8781,-4.862,-4.8719,-4.8724,-4.8717,-4.9066,-4.9132,-4.9384,-4.8947,-4.8953,-4.8957,0,-4.8502,-4.8544,-4.8735,-4.8734,-4.8764,-4.8849,-4.8898,-4.896,-4.8981,-4.8962,-4.8996,-4.8932,-4.904,-4.8908,-4.9057,-4.895,-4.8987,-4.8986,-4.8995,-4.9001,-4.8854,-4.9083,-4.9463,-4.9501,-4.901,-4.9005,-4.9002,0,-4.8761,-4.8866,-4.8993,-4.901,-4.9012,-4.9075,-4.9079,-4.9091,-4.913,-4.9174,-4.9199,-4.9256,-4.9287,-4.9334,-4.9288,-4.9196,-4.9446,-4.9309,-4.9436,-4.9437,-4.9493,-4.949,-4.9885,-4.9517,-4.9517,-4.9516,-4.9515,0,-4.9058,-4.918,-4.911,-4.9189,-4.9323,-4.9255,-4.9391,-4.9383,-4.9396,-4.9474,-4.9385,-4.9461,-4.9395,-4.9466,-4.9431,-4.9561,-4.9576,-4.9566,-4.9555,-4.9574,-4.9575,-4.9597,-4.9579,-4.9526,-4.9524,-4.9522,-4.952,0,-4.937,-4.9327,-4.946,-4.9451,-4.9452,-4.9551,-4.9545,-4.9619,-4.9596,-4.9695,-4.9715,-4.968,-4.9759,-4.9717,-4.9799,-4.9775,-4.9944,-4.991,-4.9937,-4.9928,-5.0057,-5.0046,-5.048,-5.0534,-5.0132,-5.0136,-5.0139,0,-4.9562,-4.9653,-4.9653,-4.9698,-4.9707,-4.978,-4.9819,-4.9757,-4.9802,-4.9832,-4.9904,-4.9975,-5.0027,-5.0159,-5.0142,-5.0205,-5.0172,-5.032,-5.0181,-5.0197,-5.0175,-5.017,-5.018,-5.0348,-5.0353,-5.0357,-5.036,0,-4.9908,-4.9882,-4.994,-4.9992,-5.004,-5.0079,-5.011,-5.0152,-5.0091,-5.0147,-5.0224,-5.0266,-5.0349,-5.0421,-5.0476,-5.0483,-5.0413,-5.0404,-5.0436,-5.0456,-5.0468,-5.0464,-5.0014,-5.0394,-5.039,-5.0388,-5.0386,-5.0385,-5.0165,-5.0241,-5.0254,-5.0322,-5.0339,-5.037,-5.044,-5.0425,-5.0488,-5.0549,-5.051,-5.0603,-5.0623,-5.0689,-5.0705,-5.0779,-5.072,-5.0768,-5.0779,-5.0792,-5.081,-5.0457,-5.0789,-5.0788,-5.0787,-5.0786,-5.0785,0,-5.0507,-5.051,-5.0573,-5.0618,-5.0673,-5.06,-5.0631,-5.0683,-5.0764,-5.0788,-5.0842,-5.0933,-5.1003,-5.0993,-5.1057,-5.1118,-5.1088,-5.1138,-5.1133,-5.1136,-5.0858,-5.0824,-5.1161,-5.1161,-5.1161,-5.1161,-5.1161,-5.1161,-5.0691,-5.0816,-5.0793,-5.0927,-5.0929,-5.1017,-5.1042,-5.1072,-5.109,-5.1195,-5.1252,-5.1244,-5.1255,-5.132,-5.1382,-5.1377,-5.1405,-5.1467,-5.1451,-5.1192,-5.1155,-5.112,-5.1087,-5.1474,-5.1474,-5.1722,-5.1724,-5.1726]},{"header":{"parameterUnit":"m.s-1","parameterCategory":1,"la1":30.2991,"la2":30.254,"lo1":-89.0895,"lo2":-89.0444,"dy":0.0017,"dx":0.0017,"nx":28,"ny":28,"refTime":"2024-10-03T03:00:00:Z","depth":0,"parameterNumber":3,"parameterNumberName":"V-component_of_WINDS"},"data":[0,0,0,0,0,0,0,0,0,0,0,0,0,0,0,0,0,0,0,0,0,0,0,0,0,0,0,0,0,0,0,0,0,0,0,0,0,0,0,0,0,0,0,0,0,0,0,0,0,0,0,0,0,0,0,0,0,0,-0.5391,-0.539,0,-0.5243,-0.5241,-0.524,-0.5175,-0.5175,-0.5175,-0.5176,-0.5013,-0.5009,-0.5004,0,0,0,0,0,0,0,0,0,0,0,0,0,-0.5608,-0.5604,-0.5391,-0.539,-0.5388,-0.5243,-0.5241,-0.5239,-0.5175,-0.5175,-0.5175,-0.5176,-0.5014,-0.5009,-0.5004,0,0,0,0,0,0,0,0,0,0,0,0,0,-0.5492,-0.5603,-0.5392,-0.5338,-0.5332,-0.5244,-0.5241,-0.5239,-0.5175,-0.5175,-0.5175,-0.5176,-0.5016,-0.501,-0.5003,-0.4953,0,0,-0.4982,-0.4979,0,0,0,0,0,0,0,0,-0.5498,-0.5484,-0.5348,-0.5342,-0.5335,-0.5228,-0.5258,-0.5142,-0.5175,-0.5234,-0.5176,-0.5176,-0.5083,-0.5071,-0.5042,-0.4945,-0.4938,-0.4981,-0.4977,-0.4974,-0.4972,0,0,0,0,0,0,0,-0.5507,-0.549,-0.5332,-0.5346,-0.5338,-0.5318,-0.5302,-0.5236,-0.5158,-0.5229,-0.5224,-0.5208,-0.508,-0.5049,-0.5038,-0.4936,-0.4982,-0.4975,-0.4971,-0.4969,-0.4788,-0.4787,0,0,0,0,0,0,-0.5525,-0.5497,-0.5337,-0.5328,-0.542,-0.5314,-0.5296,-0.5262,-0.5159,-0.5144,-0.5208,-0.5205,-0.506,-0.5046,-0.5032,-0.4965,-0.4974,-0.4968,-0.4964,-0.4788,-0.4788,-0.4787,0,0,0,0,0,0,-0.553,-0.5511,-0.5343,-0.5411,-0.5388,-0.531,-0.5272,-0.5259,-0.5228,-0.5143,-0.5128,-0.5191,-0.506,-0.5041,-0.4973,-0.4959,-0.4965,-0.4959,-0.4789,-0.4788,-0.4787,-0.4833,0,0,0,0,0,0,-0.5536,-0.5513,-0.5497,-0.5411,-0.5385,-0.5291,-0.5271,-0.5255,-0.5217,-0.5213,-0.5123,-0.5109,-0.5059,-0.4984,-0.4967,-0.4949,-0.4953,-0.479,-0.4789,-0.4788,-0.4832,-0.4833,-0.4835,0,0,0,0,0,-0.5544,-0.5514,-0.5496,-0.5477,-0.5363,-0.529,-0.5274,-0.5221,-0.5217,-0.5197,-0.5142,-0.5111,-0.4964,-0.4977,-0.4957,-0.4938,-0.4791,-0.4789,-0.4788,-0.4832,-0.4833,-0.4835,0,0,0,0,0,0,-0.5596,-0.5501,-0.5481,-0.5423,-0.5365,-0.5279,-0.5253,-0.5225,-0.5165,-0.5163,-0.5096,-0.5076,-0.5013,-0.4968,-0.4986,-0.4883,-0.4874,-0.4868,-0.4915,-0.4915,-0.4916,-0.4928,-0.4948,0,0,0,0,0,-0.5601,-0.5554,-0.5472,-0.5428,-0.5401,-0.5332,-0.5298,-0.5263,-0.5199,-0.5173,-0.5113,-0.505,-0.4988,-0.4949,-0.4888,-0.4826,-0.4803,-0.4802,-0.4803,-0.4804,-0.48,-0.4761,-0.4758,-0.4782,-0.4782,-0.4782,0,0,-0.561,-0.5553,-0.5526,-0.5437,-0.5388,-0.5337,-0.5312,-0.5259,-0.5219,-0.5164,-0.5097,-0.505,-0.4974,-0.4908,-0.4876,-0.4869,-0.4789,-0.4802,-0.4804,-0.4799,-0.4759,-0.4757,-0.4755,-0.4781,-0.4781,-0.4781,0,0,-0.56,-0.5554,-0.5511,-0.5463,-0.5391,-0.5345,-0.5335,-0.5253,-0.5221,-0.5153,-0.511,-0.5059,-0.4956,-0.4904,-0.4863,-0.4832,-0.48,-0.4814,-0.4819,-0.4782,-0.478,-0.4778,-0.4765,-0.4761,-0.481,-0.481,-0.481,0,-0.562,-0.5545,-0.5492,-0.5441,-0.5402,-0.5353,-0.5307,-0.5262,-0.5172,-0.5144,-0.5138,-0.5007,-0.4952,-0.4872,-0.4865,-0.4834,-0.4818,-0.4823,-0.4785,-0.4783,-0.478,-0.4766,-0.4762,-0.4812,-0.4811,-0.4811,-0.4811,0,-0.5571,-0.5519,-0.5493,-0.5411,-0.5368,-0.532,-0.5256,-0.5219,-0.5186,-0.514,-0.5069,-0.5002,-0.4926,-0.4904,-0.4871,-0.4818,-0.4816,-0.4799,-0.4788,-0.4781,-0.4767,-0.4761,-0.4815,-0.4814,-0.4813,-0.4813,0,0,-0.559,-0.548,-0.5471,-0.5432,-0.5348,-0.5304,-0.5252,-0.5181,-0.5149,-0.5088,-0.5041,-0.4954,-0.4937,-0.4891,-0.4851,-0.4818,-0.4795,-0.4804,-0.4801,-0.4803,-0.473,-0.4743,-0.4739,-0.4774,-0.4773,-0.4772,-0.4736,0,-0.5568,-0.5478,-0.5428,-0.5356,-0.5305,-0.5257,-0.5211,-0.5152,-0.5107,-0.5054,-0.5002,-0.4942,-0.4925,-0.4897,-0.4863,-0.4806,-0.4779,-0.4807,-0.4726,-0.4723,-0.4746,-0.4732,-0.4745,-0.4715,-0.4731,-0.473,-0.4729,0,-0.5531,-0.5474,-0.5398,-0.5318,-0.5295,-0.5255,-0.5185,-0.5136,-0.5067,-0.5036,-0.4985,-0.4945,-0.4884,-0.4879,-0.4792,-0.4813,-0.4776,-0.4742,-0.474,-0.4729,-0.4725,-0.4719,-0.4704,-0.4699,-0.472,-0.4721,-0.4721,0,-0.5551,-0.5454,-0.5396,-0.5364,-0.527,-0.5243,-0.5202,-0.5133,-0.5093,-0.503,-0.5002,-0.4932,-0.4893,-0.4837,-0.4778,-0.478,-0.4696,-0.4686,-0.4665,-0.4667,-0.4649,-0.4651,-0.4627,-0.4628,-0.4628,-0.4628,-0.4628,0,-0.5531,-0.5486,-0.5404,-0.5368,-0.5315,-0.5256,-0.5204,-0.5158,-0.5097,-0.5048,-0.5001,-0.4955,-0.488,-0.4824,-0.4776,-0.471,-0.4693,-0.4663,-0.4651,-0.4667,-0.4671,-0.4641,-0.4641,-0.4627,-0.4627,-0.4627,-0.4627,0,-0.5544,-0.5488,-0.5421,-0.5338,-0.5315,-0.528,-0.5206,-0.5167,-0.512,-0.5058,-0.504,-0.4964,-0.4895,-0.4831,-0.4738,-0.4706,-0.4639,-0.4624,-0.4664,-0.4657,-0.4639,-0.4641,-0.4594,-0.4583,-0.4593,-0.4593,-0.4593,0,-0.5535,-0.55,-0.5413,-0.5379,-0.5339,-0.5284,-0.5243,-0.5183,-0.5141,-0.5059,-0.5029,-0.4958,-0.4897,-0.4789,-0.4723,-0.4651,-0.4632,-0.4621,-0.4621,-0.4638,-0.463,-0.4633,-0.4627,-0.4622,-0.4622,-0.4622,-0.4622,0,-0.5524,-0.5498,-0.5443,-0.5377,-0.5331,-0.5275,-0.5218,-0.5191,-0.5118,-0.5074,-0.5005,-0.4958,-0.4865,-0.4793,-0.4713,-0.4666,-0.4631,-0.4623,-0.4614,-0.4629,-0.4653,-0.4638,-0.4665,-0.4624,-0.4624,-0.4624,-0.4624,-0.4624,-0.5524,-0.549,-0.5424,-0.5363,-0.5314,-0.5261,-0.522,-0.5168,-0.5111,-0.5032,-0.4998,-0.4928,-0.4856,-0.4746,-0.4699,-0.464,-0.4632,-0.462,-0.4616,-0.4613,-0.4616,-0.4664,-0.4625,-0.4625,-0.4625,-0.4625,-0.4625,0,-0.551,-0.5465,-0.541,-0.5332,-0.5283,-0.5258,-0.5192,-0.5152,-0.5092,-0.5029,-0.4972,-0.489,-0.482,-0.4749,-0.4674,-0.464,-0.4621,-0.4622,-0.4623,-0.4612,-0.4628,-0.4643,-0.4638,-0.4638,-0.4638,-0.4638,-0.4638,-0.4638,-0.5497,-0.5437,-0.5402,-0.5315,-0.5269,-0.5202,-0.5167,-0.5116,-0.5066,-0.4979,-0.4922,-0.4877,-0.4809,-0.4728,-0.4662,-0.4642,-0.4615,-0.462,-0.4596,-0.4612,-0.4611,-0.4611,-0.4624,-0.4615,-0.4615,-0.4584,-0.4584,-0.4583]}]]